EW7119 Weather Reports


time (UTC)temp
F
wind
direction
speed
knots
gust
knots
rain 1hr
in
rain 24hr
in
rain mn
in
humidity
%
barometer
mb
20260905131612 56 82 0.0 0.0 0.00 0.00 0.00 59 1003.5
20260905130013 57 25 0.0 0.0 0.00 0.00 0.00 57 1003.5
20260905124517 57 75 0.0 3.5 0.00 0.00 0.00 59 1003.3
20260905123016 57 63 0.0 0.0 0.00 0.00 0.00 59 1003.1
20260905121550 56 88 0.0 0.0 0.00 0.00 0.00 61 1003.0
20260905120049 54 142 0.0 0.0 0.00 0.00 0.00 65 1003.0
20260905114555 54 141 0.0 0.0 0.00 0.00 0.00 66 1003.0
20260905113008 53 142 0.0 0.0 0.00 0.00 0.00 67 1003.0
20260905111601 53 142 0.0 0.0 0.00 0.00 0.00 66 1003.1
20260905110100 53 141 0.0 0.0 0.00 0.00 0.00 67 1003.0
20260905104506 53 142 0.0 0.0 0.00 0.00 0.00 67 1003.0
20260905103111 53 141 0.0 0.0 0.00 0.00 0.00 66 1002.9
20260905101508 54 141 0.0 0.0 0.00 0.00 0.00 65 1002.7
20260905100019 54 141 0.0 0.0 0.00 0.00 0.00 65 1002.7
20260905094531 54 141 0.0 0.0 0.00 0.00 0.00 64 1002.7
20260905093010 55 141 0.0 0.0 0.00 0.00 0.00 63 1002.6
20260905091502 55 141 0.0 0.0 0.00 0.00 0.00 63 1002.6
20260905090112 55 141 0.0 0.0 0.00 0.00 0.00 62 1002.6
20260905084620 56 141 0.0 0.0 0.00 0.00 0.00 60 1002.6
20260905083055 58 141 0.0 0.0 0.00 0.00 0.00 58 1002.8
20260905081552 58 141 0.0 0.0 0.00 0.00 0.00 57 1002.8
20260905080058 59 141 0.0 0.0 0.00 0.00 0.00 55 1002.7
20260905074604 59 141 0.0 0.0 0.00 0.00 0.00 53 1002.6
20260905073106 59 141 0.0 0.0 0.00 0.00 0.00 53 1002.6
20260905071547 60 141 0.0 0.0 0.00 0.00 0.00 52 1002.6
20260905070048 61 141 0.0 0.0 0.00 0.00 0.00 50 1002.5
20260905064537 60 141 0.0 0.0 0.00 0.00 0.00 51 1002.3
20260905063006 60 141 0.0 0.0 0.00 0.00 0.00 52 1002.5
20260905061531 60 141 0.0 0.0 0.00 0.00 0.00 53 1002.3
20260905060019 62 141 0.0 0.0 0.00 0.00 0.00 50 1002.2
20260905054551 63 169 0.0 4.3 0.00 0.00 0.00 49 1002.2
20260905053144 63 154 0.0 1.7 0.00 0.00 0.00 49 1002.2
20260905051520 63 162 0.0 5.2 0.00 0.00 0.00 49 1002.1
20260905050055 63 144 0.0 9.6 0.00 0.00 0.00 49 1002.2
20260905044607 63 138 0.0 9.6 0.00 0.00 0.00 50 1002.2
20260905043113 64 150 0.0 10.4 0.00 0.00 0.00 47 1002.4
20260905041531 64 151 0.9 8.7 0.00 0.00 0.00 46 1002.3
20260905040044 64 144 0.0 6.1 0.00 0.00 0.00 45 1002.4
20260905034552 64 157 0.0 7.0 0.00 0.00 0.00 45 1002.4
20260905033059 64 150 0.0 9.6 0.00 0.00 0.00 46 1002.4
20260905031552 64 138 0.0 9.6 0.00 0.00 0.00 45 1002.2
20260905030039 64 135 0.0 1.7 0.00 0.00 0.00 44 1002.3
20260905024525 64 141 0.0 0.9 0.00 0.00 0.00 44 1002.2
20260905023047 64 104 0.0 0.9 0.00 0.00 0.00 45 1002.0
20260905021553 64 155 0.0 5.2 0.00 0.00 0.00 45 1001.8
20260905020108 65 133 0.0 6.1 0.00 0.00 0.00 44 1001.6
20260905014559 66 123 0.0 7.8 0.00 0.00 0.00 43 1001.4
20260905013103 67 132 0.0 13.9 0.00 0.00 0.00 41 1001.4
20260905011617 68 132 1.7 9.6 0.00 0.00 0.00 38 1001.4
20260905010110 69 130 0.0 7.0 0.00 0.00 0.00 36 1001.3
20260905004606 70 143 0.9 9.6 0.00 0.00 0.00 34 1001.4
20260905003108 71 165 0.0 7.0 0.00 0.00 0.00 33 1001.5
20260905001610 72 161 0.0 0.9 0.00 0.00 0.00 31 1001.4
20260905000119 72 142 0.0 6.1 0.00 0.00 0.00 31 1001.5
20260904234612 72 157 0.9 8.7 0.00 0.00 0.00 31 1001.4
20260904233100 72 175 0.0 0.9 0.00 0.00 0.00 30 1001.4
20260904231556 73 168 0.0 0.0 0.00 0.00 0.00 30 1001.2
20260904230053 74 157 0.0 0.9 0.00 0.00 0.00 29 1001.2
20260904224609 74 144 0.0 1.7 0.00 0.00 0.00 29 1001.1
20260904223110 73 133 0.0 0.9 0.00 0.00 0.00 30 1001.2
20260904221506 73 140 0.0 0.0 0.00 0.00 0.00 29 1001.2
20260904220014 72 155 0.0 3.5 0.00 0.00 0.00 31 1001.4
20260904214609 73 175 0.0 6.1 0.00 0.00 0.00 30 1001.5
20260904213108 75 142 0.0 9.6 0.00 0.00 0.00 29 1001.4
20260904211612 75 128 2.6 12.2 0.00 0.00 0.00 28 1001.4
20260904210112 76 166 0.0 7.8 0.00 0.00 0.00 27 1001.6
20260904204502 76 112 0.0 10.4 0.00 0.00 0.00 27 1001.7
20260904203002 76 245 2.6 8.7 0.00 0.00 0.00 27 1001.9
20260904201505 76 270 0.0 1.7 0.00 0.00 0.00 29 1001.9
20260904200124 74 275 0.0 6.1 0.00 0.00 0.00 28 1002.1
20260904194505 71 290 0.0 0.0 0.00 0.00 0.00 34 1002.2
20260904193006 70 210 0.0 0.0 0.00 0.00 0.00 33 1002.4
20260904191514 70 146 0.0 3.5 0.00 0.00 0.00 34 1002.5
20260904190133 70 123 0.0 0.0 0.00 0.00 0.00 36 1002.6
20260904184557 72 329 0.0 5.2 0.00 0.00 0.00 32 1002.7
20260904183045 70 257 0.0 0.0 0.00 0.00 0.00 34 1002.7
20260904181553 70 257 0.0 0.0 0.00 0.00 0.00 35 1003.1
20260904180104 73 185 0.0 6.1 0.00 0.00 0.00 33 1003.2
20260904174523 71 298 0.0 6.1 0.00 0.00 0.00 34 1003.3
20260904173007 71 242 0.0 8.7 0.00 0.00 0.00 34 1003.3
20260904171524 72 173 0.0 7.8 0.00 0.00 0.00 33 1003.3
20260904170045 70 252 0.0 2.6 0.00 0.00 0.00 34 1003.2
20260904164556 69 312 0.9 6.1 0.00 0.00 0.00 34 1003.3
20260904163058 69 290 0.0 1.7 0.00 0.00 0.00 36 1003.3
20260904161551 68 147 0.9 10.4 0.00 0.00 0.00 39 1003.4
20260904160055 66 260 0.0 0.0 0.00 0.00 0.00 40 1003.6
20260904154556 67 257 0.0 0.0 0.00 0.00 0.00 38 1003.7
20260904153050 66 266 0.0 0.0 0.00 0.00 0.00 38 1003.7
20260904151548 65 184 0.0 0.0 0.00 0.00 0.00 41 1003.6
20260904150121 63 128 0.0 0.0 0.00 0.00 0.00 42 1003.6
20260904144533 62 217 0.0 0.0 0.00 0.00 0.00 42 1003.5
20260904143023 61 123 0.0 0.0 0.00 0.00 0.00 46 1003.5
20260904141548 59 123 0.0 0.0 0.00 0.00 0.00 48 1003.5
20260904140056 57 148 0.0 0.0 0.00 0.00 0.00 52 1003.3
20260904134625 55 148 0.0 0.0 0.00 0.00 0.00 54 1003.3
20260904133005 54 148 0.0 0.0 0.00 0.00 0.00 54 1003.0